Window Rock, AZ

10:23 AM MST on December 08, 2016 (GMT -0700)
Window Rock

Weather History for KRQE - August, 2013

Change the Weather History Date:

Friday, August 16, 2013

  Actual Average Record
Temperature  
Mean Temperature 66 °F -  
Max Temperature 82 °F 81 °F 91 °F (1939)
Min Temperature 50 °F 52 °F 43 °F (1938)
Cooling Degree Days 1    
Growing Degree Days 16 (Base 50)    
Moisture  
Dew Point 44 °F    
Average Humidity 47    
Maximum Humidity 77    
Minimum Humidity 24    
Precipitation  
Precipitation 0.00 in - - ()
Sea Level Pressure  
Sea Level Pressure 30.00 in    
Wind  
Wind Speed 3 mph (ESE)    
Max Wind Speed 14 mph    
Max Gust Speed 22 mph    
Visibility 10 miles    
Events Rain    
Averages and records for this station are not official NWS values.
T = Trace of Precipitation, MM = Missing Value Source: NWS Daily Summary

Daily Weather History Graph

Daily Weather History Graph

Search for Another Location

Airport or City:

Trip Planner

Search our weather history database for the weather conditions in past years. The results will help you decide how hot, cold, wet, or windy it might be!

Date:

Astronomy

Aug. 16, 2013 Rise Set
Actual Time 6:36 AM MDT 8:04 PM MDT
Civil Twilight 6:09 AM MDT 8:30 PM MDT
Nautical Twilight 5:36 AM MDT 9:03 PM MDT
Astronomical Twilight 5:02 AM MDT 9:37 PM MDT
Moon 4:22 PM MDT (8/16) 1:45 AM MDT (8/16)
Length of Visible Light 14h 21m
Length of Day
13h 27m
Waxing Gibbous, 75% of the Moon is Illuminated
Aug 16
Waxing Gibbous
Aug 20
Full
Aug 28
Last Quarter
Sep 5
New
Sep 12
First Quarter

Hourly Weather History & Observations

Time (MDT) Temp. Dew Point Humidity Pressure Visibility Wind Dir Wind Speed Gust Speed Precip Events Conditions
12:53 AM 55.0 °F 42.1 °F 62% 29.98 in 10.0 mi West 3.5 mph - N/A   Clear
1:53 AM 54.0 °F 42.1 °F 64% 29.99 in 10.0 mi Variable 3.5 mph - N/A   Clear
2:53 AM 54.0 °F 42.1 °F 64% 29.98 in 10.0 mi Calm Calm - N/A   Clear
3:53 AM 51.1 °F 42.1 °F 71% 30.01 in 10.0 mi Calm Calm - N/A   Clear
4:53 AM 50.0 °F 43.0 °F 77% 30.00 in 10.0 mi Calm Calm - N/A   Clear
5:53 AM 55.0 °F 42.1 °F 62% 30.00 in 10.0 mi NW 3.5 mph - N/A   Clear
6:53 AM 50.0 °F 42.1 °F 74% 30.04 in 10.0 mi Calm Calm - N/A   Clear
7:53 AM 57.0 °F 43.0 °F 59% 30.04 in 10.0 mi Calm Calm - N/A   Clear
8:53 AM 64.9 °F 44.1 °F 47% 30.05 in 10.0 mi Calm Calm - N/A   Clear
9:53 AM 73.9 °F 46.0 °F 37% 30.00 in 10.0 mi Calm Calm - N/A   Clear
10:53 AM 78.1 °F 44.1 °F 30% 29.99 in 10.0 mi Calm Calm - N/A   Mostly Cloudy
11:53 AM 81.0 °F 44.1 °F 27% 30.01 in 10.0 mi Calm Calm - N/A   Mostly Cloudy
12:53 PM 79.0 °F 43.0 °F 28% 30.01 in 10.0 mi Variable 3.5 mph - 0.00 in Rain Light Rain
1:53 PM 82.0 °F 42.1 °F 24% 29.98 in 10.0 mi Variable 6.9 mph - 0.00 in   Mostly Cloudy
2:53 PM 78.1 °F 42.1 °F 28% 30.01 in 10.0 mi ESE 11.5 mph 21.9 mph N/A   Overcast
3:53 PM 80.1 °F 46.9 °F 31% 29.99 in 10.0 mi East 13.8 mph 20.7 mph 0.00 in   Partly Cloudy
4:53 PM 81.0 °F 45.0 °F 28% 29.98 in 10.0 mi SSE 5.8 mph - N/A   Partly Cloudy
5:53 PM 82.9 °F 43.0 °F 24% 29.94 in 10.0 mi East 4.6 mph - N/A   Clear
6:53 PM 77.0 °F 45.0 °F 32% 30.00 in 10.0 mi ESE 6.9 mph - 0.00 in Rain Light Rain
7:53 PM 72.0 °F 46.0 °F 40% 29.99 in 10.0 mi West 3.5 mph - 0.00 in   Clear
8:53 PM 68.0 °F 45.0 °F 43% 29.99 in 10.0 mi Calm Calm - N/A   Clear
9:53 PM 62.1 °F 48.0 °F 60% 30.00 in 10.0 mi Calm Calm - N/A   Clear
10:53 PM 64.0 °F 48.9 °F 58% 29.99 in 10.0 mi Calm Calm - N/A   Clear
11:53 PM 63.0 °F 46.9 °F 56% 29.97 in 10.0 mi Calm Calm - N/A   Clear